QPF
0.08 0.08 0.07 0.06 0.05 0.06 0.05 0.06 0.03 0.03 0.03 0.02 0.01 0.01 0.02 0.05 0.07 0.06 0.05 0.02 0.01 0.02 0.02 0.01 0.02 0.02 0.03 0.03 0.03 0.03 0.03 0.02 0.02 0.03 0.04 0.04 0.04 0.02 0.01 0.01 0.01 0.01 0.01
0.10 0.09 0.06 0.06 0.06 0.06 0.06 0.05 0.05 0.05 0.04 0.03 0.02 0.01 0.01 0.02 0.02 0.03 0.05 0.03 0.02 0.02 0.02 0.02 0.02 0.02 0.02 0.03 0.04 0.04 0.05 0.05 0.03 0.03 0.03 0.03 0.04 0.02 0.02 0.02 0.01 0.01 0.01
0.08 0.06 0.06 0.06 0.06 0.05 0.04 0.05 0.06 0.05 0.05 0.04 0.03 0.03 0.03 0.04 0.04 0.05 0.07 0.07 0.06 0.04 0.03 0.03 0.02 0.01 0.01 0.03 0.04 0.06 0.06 0.06 0.05 0.04 0.03 0.03 0.03 0.03 0.03 0.03 0.02 0.01 0.01
0.04 0.05 0.05 0.05 0.04 0.04 0.04 0.05 0.06 0.06 0.06 0.05 0.06 0.05 0.06 0.06 0.03 0.04 0.07 0.07 0.11 0.10 0.06 0.03 0.02 0.01 0.01 0.02 0.03 0.05 0.05 0.05 0.04 0.03 0.04 0.03 0.03 0.03 0.03 0.03 0.03 0.02 0.01
0.02 0.04 0.06 0.06 0.03 0.04 0.03 0.03 0.05 0.05 0.06 0.07 0.07 0.07 0.06 0.06 0.05 0.05 0.08 0.05 0.07 0.10 0.08 0.04 0.02 0.02 0.02 0.03 0.04 0.04 0.04 0.03 0.03 0.03 0.03 0.04 0.04 0.03 0.03 0.03 0.03 0.02 0.01
0.03 0.04 0.05 0.04 0.03 0.04 0.04 0.04 0.06 0.05 0.04 0.05 0.05 0.06 0.04 0.04 0.04 0.05 0.04 0.04 0.06 0.06 0.07 0.04 0.04 0.03 0.02 0.02 0.03 0.03 0.03 0.02 0.02 0.03 0.03 0.04 0.04 0.04 0.04 0.03 0.03 0.03 0.02
0.04 0.05 0.06 0.05 0.04 0.05 0.04 0.04 0.05 0.05 0.04 0.03 0.05 0.07 0.06 0.04 0.04 0.03 0.03 0.05 0.05 0.06 0.07 0.06 0.05 0.05 0.04 0.02 0.02 0.03 0.03 0.04 0.03 0.03 0.03 0.03 0.03 0.03 0.04 0.04 0.04 0.04 0.03
0.03 0.03 0.05 0.03 0.03 0.05 0.04 0.03 0.04 0.05 0.03 0.02 0.04 0.07 0.09 0.09 0.07 0.05 0.04 0.03 0.04 0.05 0.06 0.05 0.04 0.05 0.04 0.06 0.04 0.02 0.04 0.04 0.03 0.03 0.03 0.03 0.03 0.03 0.04 0.04 0.03 0.03 0.02
0.03 0.03 0.03 0.03 0.03 0.03 0.04 0.03 0.03 0.02 0.03 0.02 0.02 0.05 0.08 0.10 0.09 0.08 0.06 0.04 0.04 0.03 0.04 0.05 0.04 0.04 0.04 0.06 0.06 0.02 0.02 0.02 0.02 0.03 0.03 0.03 0.03 0.03 0.03 0.04 0.04 0.03 0.02
0.02 0.02 0.02 0.02 0.03 0.04 0.03 0.02 0.01 0.01 0.01 0.02 0.01 0.02 0.03 0.05 0.06 0.07 0.06 0.05 0.04 0.03 0.03 0.02 0.03 0.04 0.04 0.05 0.04 0.02 0.01 0.01 0.01 0.03 0.04 0.04 0.03 0.02 0.02 0.02 0.03 0.03 0.02
0.02 0.01 0.02 0.03 0.02 0.03 0.02 0.01 0.01 0.01 0.01 0.01 0.01 0.01 0.01 0.01 0.02 0.03 0.05 0.04 0.02 0.02 0.02 0.01 0.02 0.02 0.02 0.03 0.04 0.02 0.00 0.00 0.01 0.01 0.02 0.03 0.02 0.02 0.01 0.01 0.02 0.02 0.02
0.02 0.01 0.01 0.02 0.02 0.02 0.02 0.01 0.01 0.01 0.01 0.01 0.01 0.01 0.01 0.01 0.01 0.02 0.02 0.03 0.02 0.02 0.01 0.01 0.01 0.01 0.02 0.02 0.01 0.01 0.00 0.00 0.00 0.00 0.01 0.01 0.01 0.01 0.02 0.02 0.02 0.02 0.02
0.01 0.01 0.02 0.01 0.02 0.02 0.01 0.01 0.01 0.01 0.01 0.01 0.01 0.00 0.00 0.00 0.01 0.01 0.02 0.02 0.02 0.02 0.02 0.01 0.01 0.01 0.01 0.01 0.01 0.00 0.00 0.00 0.00 0.00 0.00 0.00 0.01 0.01 0.01 0.02 0.03 0.03 0.04
0.01 0.02 0.01 0.01 0.01 0.01 0.01 0.01 0.01 0.01 0.01 0.01 0.01 0.01 0.00 0.00 0.00 0.00 0.01 0.01 0.01 0.02 0.02 0.01 0.01 0.01 0.01 0.00 0.00 0.00 0.00 0.00 0.00 0.00 0.00 0.00 0.00 0.00 0.00 0.00 0.01 0.01 0.02
0.02 0.01 0.01 0.01 0.01 0.00 0.01 0.01 0.01 0.01 0.01 0.00 0.00 0.01 0.01 0.00 0.00 0.00 0.00 0.01 0.01 0.01 0.01 0.01 0.01 0.01 0.01 0.00 0.00 0.00 0.00 0.00 0.00 0.00 0.00 0.00 0.00 0.00 0.00 0.00 0.00 0.00 0.00
0.02 0.02 0.01 0.01 0.01 0.01 0.01 0.01 0.01 0.01 0.01 0.01 0.01 0.01 0.01 0.00 0.00 0.00 0.00 0.00 0.00 0.00 0.00 0.00 0.00 0.00 0.00 0.00 0.00 0.00 0.00 0.00 0.00 0.00 0.00 0.00 0.00 0.00 0.00 0.00 0.00 0.00 0.00
0.03 0.02 0.01 0.01 0.01 0.02 0.01 0.01 0.01 0.00 0.01 0.01 0.01 0.01 0.00 0.00 0.00 0.00 0.00 0.00 0.00 0.00 0.00 0.00 0.00 0.00 0.00 0.00 0.00 0.00 0.00 0.00 0.00 0.00 0.00 0.00 0.00 0.00 0.00 0.00 0.00 0.00 0.00
0.03 0.02 0.02 0.02 0.01 0.01 0.01 0.00 0.00 0.01 0.01 0.01 0.01 0.01 0.01 0.00 0.00 0.00 0.00 0.00 0.00 0.00 0.00 0.00 0.00 0.00 0.00 0.00 0.00 0.00 0.00 0.00 0.00 0.00 0.00 0.00 0.00 0.00 0.00 0.00 0.00 0.00 0.00
0.03 0.02 0.02 0.01 0.01 0.01 0.02 0.01 0.01 0.01 0.02 0.01 0.01 0.01 0.01 0.01 0.01 0.00 0.00 0.00 0.00 0.00 0.00 0.00 0.00 0.00 0.00 0.00 0.00 0.00 0.00 0.00 0.00 0.00 0.00 0.00 0.00 0.00 0.00 0.00 0.00 0.00 0.00
0.03 0.02 0.01 0.02 0.01 0.02 0.02 0.02 0.02 0.02 0.02 0.01 0.01 0.01 0.01 0.01 0.01 0.01 0.00 0.00 0.00 0.00 0.01 0.00 0.00 0.00 0.00 0.00 0.01 0.01 0.00 0.00 0.00 0.00 0.00 0.00 0.00 0.00 0.00 0.00 0.00 0.00 0.00
0.03 0.02 0.01 0.01 0.01 0.02 0.02 0.01 0.01 0.01 0.01 0.01 0.01 0.01 0.01 0.01 0.01 0.01 0.00 0.01 0.01 0.01 0.01 0.01 0.01 0.01 0.02 0.02 0.02 0.02 0.01 0.01 0.00 0.00 0.00 0.00 0.00 0.00 0.00 0.00 0.00 0.00 0.00
0.03 0.03 0.02 0.01 0.01 0.01 0.02 0.01 0.02 0.01 0.02 0.02 0.02 0.02 0.01 0.00 0.00 0.00 0.00 0.00 0.00 0.01 0.01 0.01 0.01 0.02 0.02 0.02 0.02 0.01 0.01 0.01 0.01 0.00 0.00 0.00 0.00 0.00 0.00 0.00 0.00 0.00 0.00
0.04 0.03 0.03 0.02 0.02 0.02 0.02 0.02 0.03 0.02 0.02 0.02 0.02 0.02 0.01 0.00 0.00 0.00 0.00 0.00 0.00 0.00 0.00 0.00 0.01 0.02 0.02 0.03 0.02 0.02 0.02 0.02 0.01 0.00 0.01 0.00 0.00 0.00 0.00 0.00 0.00 0.00 0.00
0.04 0.04 0.03 0.03 0.04 0.04 0.04 0.03 0.02 0.02 0.02 0.02 0.02 0.02 0.02 0.02 0.01 0.02 0.02 0.02 0.02 0.01 0.01 0.01 0.01 0.01 0.02 0.02 0.02 0.02 0.01 0.01 0.00 0.00 0.01 0.01 0.00 0.00 0.00 0.00 0.00 0.00 0.00
0.04 0.04 0.04 0.05 0.06 0.06 0.05 0.04 0.02 0.02 0.01 0.01 0.02 0.02 0.02 0.02 0.03 0.02 0.01 0.02 0.03 0.02 0.01 0.02 0.01 0.01 0.01 0.00 0.00 0.00 0.00 0.00 0.00 0.00 0.01 0.02 0.01 0.00 0.00 0.00 0.00 0.00 0.00
0.04 0.05 0.05 0.06 0.06 0.07 0.06 0.03 0.02 0.02 0.02 0.02 0.04 0.04 0.03 0.03 0.03 0.02 0.02 0.03 0.03 0.03 0.03 0.02 0.02 0.01 0.00 0.00 0.00 0.00 0.01 0.01 0.01 0.01 0.00 0.01 0.01 0.01 0.01 0.00 0.00 0.00 0.01
MSLP
1014.74 1014.91 1014.97 1014.97 1014.95 1014.96 1015.02 1015.13 1015.27 1015.42 1015.56 1015.67 1015.76 1015.85 1015.97 1016.14 1016.39 1016.73 1017.13 1017.57 1018.02 1018.45 1018.81 1019.11 1019.35 1019.54 1019.70 1019.87 1020.05 1020.26 1020.48 1020.73 1020.98 1021.22 1021.45 1021.67 1021.87 1022.06 1022.23 1022.40 1022.55 1022.70 1022.83
1014.68 1014.87 1014.96 1014.98 1014.98 1015.00 1015.07 1015.18 1015.34 1015.51 1015.69 1015.84 1015.98 1016.11 1016.24 1016.41 1016.64 1016.93 1017.28 1017.67 1018.08 1018.48 1018.85 1019.18 1019.45 1019.67 1019.87 1020.04 1020.22 1020.40 1020.59 1020.80 1021.03 1021.26 1021.51 1021.75 1021.99 1022.21 1022.42 1022.60 1022.75 1022.88 1023.00
1014.61 1014.82 1014.94 1015.00 1015.04 1015.09 1015.18 1015.32 1015.49 1015.68 1015.88 1016.07 1016.23 1016.39 1016.54 1016.71 1016.90 1017.15 1017.44 1017.77 1018.12 1018.49 1018.85 1019.18 1019.47 1019.73 1019.95 1020.13 1020.30 1020.47 1020.63 1020.82 1021.02 1021.24 1021.49 1021.75 1022.01 1022.27 1022.50 1022.70 1022.86 1022.99 1023.10
1014.53 1014.76 1014.92 1015.04 1015.14 1015.24 1015.36 1015.51 1015.69 1015.89 1016.09 1016.30 1016.48 1016.66 1016.82 1016.98 1017.16 1017.36 1017.60 1017.86 1018.16 1018.48 1018.80 1019.12 1019.42 1019.70 1019.93 1020.13 1020.31 1020.46 1020.61 1020.77 1020.95 1021.16 1021.40 1021.66 1021.94 1022.21 1022.46 1022.68 1022.86 1022.99 1023.10
1014.46 1014.70 1014.91 1015.10 1015.26 1015.42 1015.57 1015.74 1015.91 1016.10 1016.30 1016.49 1016.68 1016.87 1017.04 1017.21 1017.38 1017.55 1017.74 1017.96 1018.20 1018.46 1018.74 1019.03 1019.32 1019.59 1019.84 1020.05 1020.23 1020.38 1020.53 1020.67 1020.83 1021.02 1021.25 1021.50 1021.78 1022.06 1022.31 1022.54 1022.72 1022.86 1022.97
1014.41 1014.66 1014.92 1015.17 1015.40 1015.61 1015.80 1015.97 1016.13 1016.29 1016.45 1016.63 1016.81 1017.00 1017.18 1017.37 1017.54 1017.71 1017.88 1018.05 1018.24 1018.45 1018.68 1018.93 1019.19 1019.45 1019.70 1019.91 1020.10 1020.26 1020.41 1020.54 1020.69 1020.87 1021.07 1021.31 1021.57 1021.83 1022.08 1022.30 1022.48 1022.62 1022.73
1014.39 1014.66 1014.95 1015.26 1015.55 1015.81 1016.02 1016.19 1016.32 1016.44 1016.56 1016.70 1016.86 1017.05 1017.25 1017.46 1017.66 1017.84 1018.01 1018.16 1018.31 1018.46 1018.64 1018.84 1019.06 1019.30 1019.53 1019.75 1019.95 1020.13 1020.28 1020.42 1020.57 1020.73 1020.91 1021.12 1021.34 1021.57 1021.80 1021.99 1022.16 1022.30 1022.40
1014.42 1014.68 1015.01 1015.36 1015.70 1016.00 1016.22 1016.38 1016.48 1016.55 1016.62 1016.71 1016.85 1017.04 1017.26 1017.50 1017.74 1017.95 1018.13 1018.27 1018.39 1018.51 1018.63 1018.78 1018.95 1019.15 1019.37 1019.59 1019.80 1019.99 1020.16 1020.32 1020.47 1020.62 1020.78 1020.96 1021.15 1021.34 1021.52 1021.68 1021.82 1021.94 1022.03
1014.49 1014.75 1015.09 1015.48 1015.86 1016.18 1016.41 1016.56 1016.62 1016.64 1016.66 1016.71 1016.83 1017.01 1017.24 1017.51 1017.79 1018.03 1018.23 1018.38 1018.49 1018.57 1018.64 1018.73 1018.86 1019.02 1019.21 1019.42 1019.64 1019.85 1020.05 1020.23 1020.39 1020.54 1020.70 1020.85 1021.00 1021.15 1021.29 1021.41 1021.51 1021.59 1021.66
1014.58 1014.84 1015.20 1015.60 1016.00 1016.34 1016.58 1016.71 1016.75 1016.73 1016.70 1016.72 1016.81 1016.98 1017.22 1017.51 1017.82 1018.09 1018.31 1018.47 1018.56 1018.61 1018.64 1018.68 1018.75 1018.87 1019.04 1019.24 1019.46 1019.69 1019.91 1020.12 1020.30 1020.47 1020.63 1020.77 1020.90 1021.01 1021.11 1021.19 1021.25 1021.29 1021.33
1014.69 1014.94 1015.30 1015.71 1016.12 1016.47 1016.71 1016.84 1016.86 1016.82 1016.76 1016.75 1016.81 1016.96 1017.21 1017.50 1017.82 1018.11 1018.33 1018.49 1018.57 1018.59 1018.58 1018.58 1018.61 1018.69 1018.83 1019.01 1019.24 1019.48 1019.73 1019.96 1020.18 1020.37 1020.54 1020.68 1020.80 1020.90 1020.97 1021.02 1021.05 1021.06 1021.05
1014.77 1015.01 1015.37 1015.78 1016.20 1016.55 1016.80 1016.93 1016.95 1016.90 1016.83 1016.79 1016.83 1016.97 1017.19 1017.47 1017.78 1018.06 1018.28 1018.42 1018.49 1018.49 1018.46 1018.42 1018.42 1018.47 1018.58 1018.75 1018.96 1019.21 1019.47 1019.73 1019.97 1020.19 1020.38 1020.54 1020.67 1020.77 1020.83 1020.87 1020.88 1020.87 1020.83
1014.80 1015.05 1015.39 1015.80 1016.21 1016.57 1016.83 1016.97 1017.00 1016.95 1016.88 1016.84 1016.86 1016.97 1017.16 1017.42 1017.69 1017.95 1018.15 1018.27 1018.32 1018.31 1018.26 1018.21 1018.18 1018.21 1018.29 1018.44 1018.65 1018.89 1019.15 1019.42 1019.68 1019.92 1020.13 1020.31 1020.47 1020.58 1020.66 1020.70 1020.71 1020.69 1020.64
1014.77 1015.02 1015.36 1015.76 1016.16 1016.52 1016.78 1016.94 1016.99 1016.97 1016.92 1016.88 1016.89 1016.97 1017.13 1017.34 1017.57 1017.79 1017.96 1018.06 1018.10 1018.09 1018.03 1017.98 1017.94 1017.96 1018.02 1018.15 1018.33 1018.55 1018.79 1019.05 1019.31 1019.55 1019.78 1019.99 1020.16 1020.31 1020.41 1020.47 1020.49 1020.48 1020.43
1014.68 1014.93 1015.27 1015.65 1016.05 1016.40 1016.67 1016.85 1016.94 1016.95 1016.92 1016.89 1016.90 1016.96 1017.09 1017.25 1017.44 1017.61 1017.75 1017.84 1017.88 1017.87 1017.83 1017.79 1017.76 1017.77 1017.82 1017.92 1018.07 1018.25 1018.45 1018.67 1018.90 1019.13 1019.36 1019.57 1019.76 1019.92 1020.05 1020.14 1020.19 1020.19 1020.15
1014.53 1014.80 1015.13 1015.51 1015.89 1016.24 1016.52 1016.72 1016.84 1016.88 1016.89 1016.89 1016.90 1016.96 1017.05 1017.18 1017.33 1017.47 1017.59 1017.67 1017.72 1017.73 1017.72 1017.70 1017.69 1017.71 1017.75 1017.81 1017.91 1018.03 1018.18 1018.34 1018.51 1018.69 1018.89 1019.08 1019.27 1019.44 1019.58 1019.69 1019.76 1019.78 1019.77
1014.36 1014.65 1014.98 1015.35 1015.72 1016.06 1016.35 1016.57 1016.71 1016.80 1016.84 1016.87 1016.90 1016.96 1017.04 1017.15 1017.27 1017.40 1017.51 1017.60 1017.66 1017.70 1017.73 1017.75 1017.77 1017.79 1017.81 1017.85 1017.89 1017.94 1018.00 1018.08 1018.17 1018.28 1018.41 1018.56 1018.71 1018.86 1019.00 1019.11 1019.19 1019.23 1019.24
1014.17 1014.50 1014.84 1015.20 1015.56 1015.89 1016.18 1016.40 1016.58 1016.70 1016.78 1016.84 1016.90 1016.97 1017.06 1017.17 1017.28 1017.40 1017.51 1017.62 1017.71 1017.79 1017.86 1017.91 1017.95 1017.98 1017.99 1017.99 1017.98 1017.95 1017.92 1017.90 1017.90 1017.92 1017.97 1018.04 1018.13 1018.23 1018.33 1018.42 1018.48 1018.53 1018.55
1014.00 1014.35 1014.71 1015.07 1015.42 1015.73 1016.01 1016.25 1016.43 1016.58 1016.70 1016.80 1016.89 1016.98 1017.09 1017.20 1017.32 1017.45 1017.57 1017.70 1017.82 1017.93 1018.03 1018.11 1018.18 1018.21 1018.21 1018.17 1018.10 1018.01 1017.89 1017.78 1017.68 1017.60 1017.55 1017.53 1017.54 1017.57 1017.60 1017.64 1017.68 1017.70 1017.72
1013.83 1014.22 1014.59 1014.95 1015.28 1015.59 1015.85 1016.08 1016.28 1016.44 1016.58 1016.71 1016.83 1016.96 1017.08 1017.21 1017.34 1017.48 1017.62 1017.76 1017.90 1018.03 1018.15 1018.26 1018.33 1018.36 1018.34 1018.28 1018.17 1018.02 1017.84 1017.65 1017.47 1017.30 1017.16 1017.05 1016.97 1016.91 1016.86 1016.83 1016.81 1016.79 1016.79
1013.65 1014.07 1014.46 1014.81 1015.13 1015.42 1015.67 1015.89 1016.08 1016.25 1016.41 1016.56 1016.70 1016.85 1016.99 1017.13 1017.28 1017.42 1017.57 1017.71 1017.86 1018.00 1018.12 1018.23 1018.30 1018.32 1018.30 1018.22 1018.08 1017.90 1017.69 1017.45 1017.22 1016.99 1016.78 1016.59 1016.42 1016.27 1016.14 1016.03 1015.93 1015.85 1015.81
1013.44 1013.87 1014.27 1014.63 1014.94 1015.20 1015.44 1015.64 1015.82 1015.99 1016.15 1016.31 1016.46 1016.62 1016.77 1016.92 1017.07 1017.21 1017.35 1017.49 1017.62 1017.75 1017.86 1017.95 1018.01 1018.03 1018.00 1017.92 1017.78 1017.60 1017.38 1017.14 1016.89 1016.64 1016.39 1016.15 1015.92 1015.70 1015.48 1015.29 1015.11 1014.96 1014.85
1013.17 1013.61 1014.01 1014.36 1014.66 1014.91 1015.13 1015.31 1015.48 1015.64 1015.79 1015.95 1016.10 1016.26 1016.41 1016.56 1016.70 1016.83 1016.95 1017.06 1017.17 1017.27 1017.36 1017.43 1017.47 1017.48 1017.45 1017.38 1017.26 1017.11 1016.92 1016.71 1016.48 1016.24 1015.99 1015.73 1015.46 1015.19 1014.91 1014.64 1014.38 1014.16 1013.98
1012.83 1013.26 1013.66 1014.00 1014.29 1014.53 1014.73 1014.90 1015.06 1015.20 1015.35 1015.49 1015.64 1015.79 1015.93 1016.06 1016.18 1016.28 1016.38 1016.46 1016.54 1016.61 1016.67 1016.71 1016.74 1016.74 1016.72 1016.67 1016.58 1016.47 1016.34 1016.18 1016.00 1015.80 1015.57 1015.32 1015.05 1014.75 1014.43 1014.10 1013.78 1013.49 1013.24
1012.40 1012.83 1013.21 1013.55 1013.84 1014.08 1014.27 1014.44 1014.59 1014.72 1014.85 1014.98 1015.11 1015.24 1015.36 1015.47 1015.57 1015.65 1015.72 1015.77 1015.82 1015.86 1015.89 1015.91 1015.92 1015.92 1015.91 1015.88 1015.84 1015.77 1015.69 1015.59 1015.47 1015.32 1015.14 1014.92 1014.66 1014.36 1014.02 1013.66 1013.29 1012.94 1012.63
1011.91 1012.32 1012.70 1013.04 1013.34 1013.58 1013.79 1013.96 1014.10 1014.23 1014.35 1014.47 1014.58 1014.69 1014.79 1014.88 1014.95 1015.01 1015.06 1015.09 1015.11 1015.13 1015.14 1015.15 1015.16 1015.15 1015.15 1015.14 1015.12 1015.09 1015.05 1014.99 1014.92 1014.82 1014.68 1014.49 1014.26 1013.97 1013.64 1013.27 1012.88 1012.49 1012.12
Thickness
5753 5750 5748 5747 5746 5745 5745 5745 5745 5744 5744 5744 5744 5743 5742 5740 5739 5735 5731 5728 5727 5725 5724 5722 5720 5719 5717 5716 5715 5714 5713 5712 5711 5710 5710 5709 5708 5707 5707 5706 5705 5704 5704
5751 5750 5748 5748 5747 5745 5745 5744 5744 5743 5743 5743 5742 5742 5741 5739 5738 5735 5731 5728 5727 5725 5723 5721 5719 5718 5716 5715 5714 5713 5711 5711 5710 5709 5708 5708 5707 5707 5706 5705 5704 5703 5703
5750 5748 5748 5747 5746 5745 5744 5744 5743 5743 5742 5742 5741 5741 5740 5738 5737 5735 5732 5729 5727 5724 5723 5721 5719 5717 5716 5714 5713 5712 5710 5709 5708 5707 5707 5706 5706 5705 5704 5704 5703 5702 5701
5749 5748 5747 5747 5746 5745 5744 5743 5743 5742 5741 5740 5739 5739 5739 5737 5737 5735 5733 5731 5728 5725 5722 5720 5718 5717 5715 5713 5712 5711 5709 5708 5707 5706 5705 5705 5704 5703 5703 5702 5701 5701 5700
5748 5747 5747 5746 5746 5745 5744 5744 5742 5741 5738 5738 5738 5738 5738 5737 5736 5736 5733 5732 5729 5726 5723 5720 5718 5716 5714 5713 5711 5710 5708 5707 5706 5705 5704 5703 5703 5702 5701 5700 5700 5699 5699
5747 5747 5746 5745 5745 5745 5743 5742 5740 5740 5738 5737 5738 5737 5737 5737 5736 5735 5734 5732 5730 5727 5723 5721 5718 5716 5714 5712 5711 5709 5707 5706 5705 5704 5703 5702 5702 5701 5700 5699 5699 5698 5698
5745 5745 5746 5744 5744 5743 5741 5741 5739 5737 5737 5738 5734 5732 5734 5737 5736 5735 5734 5732 5730 5727 5724 5721 5719 5716 5714 5712 5710 5708 5707 5705 5704 5703 5701 5701 5700 5700 5699 5698 5698 5697 5697
5745 5745 5744 5744 5743 5741 5740 5740 5739 5736 5738 5738 5733 5727 5723 5725 5731 5735 5733 5731 5729 5727 5724 5722 5720 5718 5715 5712 5710 5708 5706 5704 5703 5701 5700 5699 5698 5698 5697 5697 5697 5696 5695
5744 5744 5744 5744 5743 5742 5739 5739 5739 5736 5734 5737 5737 5729 5721 5717 5722 5728 5731 5730 5728 5726 5725 5723 5721 5718 5716 5713 5710 5708 5706 5704 5702 5701 5699 5698 5697 5696 5696 5696 5695 5695 5694
5744 5744 5743 5743 5742 5742 5740 5739 5740 5739 5736 5733 5735 5735 5732 5729 5722 5718 5723 5727 5727 5725 5724 5724 5721 5718 5716 5714 5711 5708 5706 5704 5702 5700 5698 5697 5696 5695 5695 5694 5694 5693 5693
5743 5743 5743 5742 5742 5742 5741 5740 5739 5739 5738 5735 5734 5734 5733 5732 5731 5722 5716 5720 5722 5724 5724 5723 5721 5719 5717 5714 5710 5708 5705 5703 5701 5699 5697 5696 5695 5694 5694 5693 5692 5692 5692
5742 5743 5742 5741 5741 5741 5740 5740 5739 5738 5737 5736 5735 5736 5733 5730 5728 5727 5721 5719 5719 5722 5724 5723 5721 5719 5717 5714 5711 5708 5705 5702 5700 5698 5696 5695 5694 5693 5692 5692 5691 5690 5690
5740 5741 5742 5740 5740 5740 5739 5739 5737 5737 5736 5735 5734 5734 5735 5734 5733 5730 5724 5721 5720 5721 5721 5721 5721 5719 5717 5713 5710 5707 5704 5701 5699 5697 5696 5694 5693 5692 5691 5690 5689 5689 5688
5742 5741 5741 5739 5739 5739 5739 5737 5737 5735 5735 5734 5734 5732 5732 5733 5733 5731 5726 5721 5716 5716 5717 5718 5720 5719 5716 5712 5708 5705 5703 5700 5699 5697 5695 5693 5692 5691 5690 5689 5688 5687 5686
5743 5741 5740 5739 5738 5737 5737 5735 5735 5734 5733 5732 5731 5730 5729 5730 5731 5730 5728 5724 5716 5709 5709 5714 5715 5716 5714 5710 5706 5704 5702 5700 5698 5696 5694 5693 5691 5690 5688 5687 5686 5685 5684
5743 5740 5739 5738 5736 5736 5735 5734 5733 5732 5730 5729 5728 5728 5726 5727 5728 5727 5725 5723 5720 5713 5708 5712 5713 5713 5710 5709 5704 5702 5701 5699 5697 5696 5694 5693 5691 5689 5687 5686 5684 5683 5682
5741 5739 5738 5737 5735 5734 5734 5732 5731 5730 5728 5726 5726 5725 5723 5723 5722 5722 5722 5719 5717 5714 5706 5708 5711 5710 5707 5704 5701 5700 5699 5698 5697 5696 5694 5693 5691 5688 5686 5685 5683 5681 5680
5739 5738 5737 5736 5734 5733 5732 5731 5729 5728 5726 5724 5723 5722 5720 5720 5718 5717 5716 5715 5713 5711 5706 5701 5704 5704 5703 5702 5700 5698 5697 5698 5697 5696 5695 5693 5690 5687 5685 5683 5681 5680 5678
5737 5737 5736 5734 5733 5733 5731 5729 5728 5727 5725 5723 5721 5719 5718 5716 5713 5713 5711 5710 5709 5709 5705 5701 5699 5701 5700 5700 5697 5696 5696 5695 5694 5694 5693 5690 5688 5686 5683 5681 5680 5678 5676
5735 5735 5734 5733 5732 5731 5730 5728 5726 5724 5723 5721 5720 5718 5716 5714 5711 5709 5708 5706 5704 5702 5700 5698 5696 5696 5696 5696 5694 5690 5689 5690 5690 5691 5689 5687 5685 5683 5681 5679 5677 5675 5673
5736 5735 5733 5732 5731 5730 5729 5727 5724 5722 5720 5718 5717 5716 5714 5712 5710 5707 5705 5702 5700 5697 5695 5693 5692 5691 5690 5689 5686 5686 5683 5684 5685 5686 5684 5683 5682 5679 5678 5676 5674 5672 5670
5735 5734 5732 5731 5729 5730 5729 5727 5724 5722 5719 5716 5714 5713 5712 5709 5707 5704 5702 5699 5695 5692 5689 5687 5686 5684 5684 5683 5682 5680 5677 5675 5673 5678 5676 5675 5676 5674 5674 5673 5672 5669 5666
5734 5732 5731 5729 5728 5728 5726 5724 5721 5719 5716 5714 5712 5709 5709 5710 5706 5702 5698 5695 5692 5688 5685 5682 5679 5678 5678 5678 5675 5672 5670 5667 5666 5669 5667 5666 5668 5667 5668 5668 5666 5664 5661
5732 5730 5729 5728 5727 5725 5722 5720 5717 5715 5713 5711 5709 5707 5705 5704 5703 5699 5696 5692 5689 5687 5684 5679 5678 5677 5675 5673 5669 5667 5664 5663 5663 5663 5661 5657 5660 5659 5661 5660 5658 5657 5655
5731 5729 5728 5726 5725 5723 5719 5716 5713 5710 5708 5707 5706 5705 5703 5701 5698 5695 5691 5688 5686 5684 5683 5680 5677 5674 5670 5667 5663 5659 5656 5653 5652 5655 5655 5651 5651 5651 5652 5651 5651 5649 5647
5730 5728 5726 5725 5723 5721 5716 5712 5708 5707 5704 5703 5702 5702 5700 5697 5695 5691 5687 5684 5680 5678 5677 5675 5672 5669 5666 5662 5659 5654 5650 5646 5644 5644 5647 5643 5641 5640 5639 5642 5641 5639 5637